Cairo, Egypt

2:38 AM EET on September 25, 2016 (GMT +0200)
Cairo

Weather History for 62366 - January, 2014

Change the Weather History Date:

Saturday, January 18, 2014

  Actual Average Record
Temperature  
Mean Temperature 60 °F -  
Max Temperature 67 °F - - ()
Min Temperature 52 °F - - ()
Degree Days  
Heating Degree Days 6    
Growing Degree Days 10 (Base 50)    
Moisture  
Dew Point 51 °F    
Average Humidity 73    
Maximum Humidity 95    
Minimum Humidity 37    
Precipitation  
Precipitation 0.00 in - - ()
Sea Level Pressure  
Sea Level Pressure 30.23 in    
Wind  
Wind Speed 4 mph ()    
Max Wind Speed 13 mph    
Max Gust Speed -    
Visibility 2.8 miles    
Events Fog    
T = Trace of Precipitation, MM = Missing Value Source: Averaged Metar Reports

Daily Weather History Graph

Daily Weather History Graph

Search for Another Location

Airport or City:

Trip Planner

Search our weather history database for the weather conditions in past years. The results will help you decide how hot, cold, wet, or windy it might be!

Date:

Astronomy

Jan. 18, 2014 Rise Set
Actual Time 6:50 AM EET 5:18 PM EET
Civil Twilight 6:24 AM EET 5:44 PM EET
Nautical Twilight 5:55 AM EET 6:14 PM EET
Astronomical Twilight 5:26 AM EET 6:42 PM EET
Moon 7:29 PM EET (1/18) 7:51 AM EET (1/18)
Length of Visible Light 11h 19m
Length of Day
10h 28m
Waning Gibbous, 96% of the Moon is Illuminated
Jan 18
Waning Gibbous
Jan 24
Last Quarter
Jan 30
New
Feb 6
First Quarter
Feb 15
Full

Hourly Weather History & Observations

Time (EET) Temp. Dew Point Humidity Pressure Visibility Wind Dir Wind Speed Gust Speed Precip Events Conditions
12:00 AM 55.4 °F 51.8 °F 88% 30.21 in 1.9 mi Calm Calm - N/A   Mist
12:30 AM 55.4 °F 51.8 °F 88% 30.21 in 1.9 mi Calm Calm - N/A   Mist
1:00 AM 57.2 °F 53.6 °F 88% 30.21 in 1.9 mi North 3.5 mph - N/A   Mist
1:30 AM 57.2 °F 53.6 °F 88% 30.21 in 1.2 mi North 3.5 mph - N/A   Mist
2:00 AM 57 °F 53 °F 83% 30.25 in 1 mi Calm Calm - -   Mist
2:00 AM 57.2 °F 53.6 °F 88% 30.24 in 0.9 mi Calm Calm - N/A   Mist
2:30 AM 57.2 °F 53.6 °F 88% 30.24 in 0.9 mi Calm Calm - N/A   Mist
3:00 AM 57.2 °F 51.8 °F 82% 30.24 in 0.9 mi NNE 3.5 mph - N/A   Mist
3:30 AM 55.4 °F 51.8 °F 88% 30.21 in 0.9 mi Calm Calm - N/A   Mist
4:00 AM 55.4 °F 51.8 °F 88% 30.21 in 0.9 mi Calm Calm - N/A   Mist
4:30 AM 55.4 °F 51.8 °F 88% 30.21 in 0.9 mi Calm Calm - N/A   Mist
5:00 AM 54 °F 52 °F 90% 30.24 in 1 mi Calm Calm - -   Mist
5:00 AM 53.6 °F 51.8 °F 94% 30.21 in 0.9 mi Calm Calm - N/A   Mist
5:30 AM 53.6 °F 50.0 °F 88% 30.21 in 0.9 mi Calm Calm - N/A   Mist
6:00 AM 53.6 °F 50.0 °F 88% 30.24 in 0.6 mi Calm Calm - N/A   Mist
6:30 AM 53.6 °F 50.0 °F 88% 30.24 in 0.6 mi Calm Calm - N/A   Mist
7:00 AM 53.6 °F 51.8 °F 94% 30.24 in 0.6 mi Calm Calm - N/A   Mist
7:30 AM 53.6 °F 51.8 °F 94% 30.24 in 0.6 mi Calm Calm - N/A   Mist
8:00 AM 53 °F 52 °F 95% 30.27 in 0 mi Calm Calm - - Fog Partial Fog
8:00 AM 53.6 °F 51.8 °F 94% 30.27 in 0.5 mi Calm Calm - N/A Fog Fog
8:30 AM 53.6 °F 51.8 °F 94% 30.27 in 0.5 mi Calm Calm - N/A Fog Fog
9:00 AM 55.4 °F 53.6 °F 94% 30.27 in 0.5 mi Calm Calm - N/A Fog Fog
9:30 AM 57.2 °F 53.6 °F 88% 30.27 in 0.5 mi NE 4.6 mph - N/A Fog Fog
9:45 AM 59.0 °F 55.4 °F 88% 30.27 in 1.9 mi NE 6.9 mph - N/A   Mist
10:00 AM 59.0 °F 53.6 °F 82% 30.27 in 1.9 mi NE 6.9 mph - N/A   Mist
10:30 AM 60.8 °F 53.6 °F 77% 30.27 in 3.7 mi NE 6.9 mph - N/A   Partly Cloudy
11:00 AM 62 °F 53 °F 65% 30.28 in 4 mi NE 8.1 mph - -   Mist
11:00 AM 62.6 °F 53.6 °F 72% 30.27 in 3.7 mi NE 8.1 mph - N/A   Scattered Clouds
11:30 AM 64.4 °F 51.8 °F 64% 30.24 in 6.2 mi NE 11.5 mph - N/A   Mostly Cloudy
12:00 PM 64.4 °F 51.8 °F 64% 30.24 in 6.2 mi NNE 10.4 mph - N/A   Mostly Cloudy
12:30 PM 66.2 °F 50.0 °F 56% 30.21 in 6.2 mi NE 10.4 mph - N/A   Mostly Cloudy
1:00 PM 66.2 °F 50.0 °F 56% 30.21 in 6.2 mi NNE 10.4 mph - N/A   Scattered Clouds
1:30 PM 68.0 °F 48.2 °F 49% 30.18 in 6.2 mi NE 10.4 mph - N/A   Scattered Clouds
2:00 PM 67 °F 47 °F 37% 30.21 in 6 mi NE 11.5 mph - -   Partly Cloudy
2:00 PM 68.0 °F 48.2 °F 49% 30.18 in 6.2 mi ENE 12.7 mph - N/A   Scattered Clouds
2:30 PM 68.0 °F 48.2 °F 49% 30.18 in 6.2 mi ENE 12.7 mph - N/A   Scattered Clouds
3:00 PM 68.0 °F 46.4 °F 46% 30.18 in 6.2 mi NE 11.5 mph - N/A   Scattered Clouds
3:30 PM 68.0 °F 46.4 °F 46% 30.18 in 6.2 mi NE 11.5 mph - N/A   Scattered Clouds
4:00 PM 68.0 °F 46.4 °F 46% 30.18 in 6.2 mi NE 11.5 mph - N/A   Scattered Clouds
4:30 PM 66.2 °F 44.6 °F 46% 30.18 in - NNE 12.7 mph - N/A   Clear
5:00 PM 66.2 °F 46.4 °F 49% 30.21 in - NNE 12.7 mph - N/A   Clear
5:28 PM 64.4 °F 46.4 °F 52% 30.21 in - NNE 11.5 mph - N/A   Clear
6:00 PM 64.4 °F 46.4 °F 52% 30.21 in - NNE 10.4 mph - N/A   Clear
6:30 PM 62.6 °F 46.4 °F 55% 30.21 in - NNE 8.1 mph - N/A   Clear
7:00 PM 62.6 °F 48.2 °F 59% 30.24 in - NNE 9.2 mph - N/A   Clear
7:30 PM 62.6 °F 50.0 °F 63% 30.24 in - NNE 12.7 mph - N/A   Clear
8:00 PM 61 °F 50 °F 57% 30.27 in 6 mi NNE 11.5 mph - -  
8:00 PM 60.8 °F 50.0 °F 68% 30.24 in - NNE 11.5 mph - N/A   Clear
8:30 PM 59.0 °F 50.0 °F 72% 30.24 in - NNE 11.5 mph - N/A   Clear
9:00 PM 59.0 °F 50.0 °F 72% 30.24 in - NE 11.5 mph - N/A   Clear
9:30 PM 57.2 °F 50.0 °F 77% 30.27 in - NE 8.1 mph - N/A   Clear
9:58 PM 57.2 °F 50.0 °F 77% 30.27 in - NE 8.1 mph - N/A   Clear
10:29 PM 57.2 °F 50.0 °F 77% 30.27 in - ENE 9.2 mph - N/A   Clear
11:00 PM 57 °F 51 °F 73% 30.29 in 6 mi ENE 9.2 mph - -  
11:00 PM 57.2 °F 50.0 °F 77% 30.27 in - ENE 9.2 mph - N/A   Clear